Regional Weather Roundup
Issued by NWS

Home | Current Version | Previous Version | Text Only | Print | Product List | Glossary On
Versions: 1 2 3 4 5 6 7 8 9 10 11 12 13 14 15 16 17 18 19 20 21 22 23 24 25 26 27 28 29 30 31 32 33 34 35 36 37 38 39 40 41 42 43 44 45 46 47 48 49 50
000
ASUS44 KLUB 270510
RWRTX
WEST TEXAS WEATHER ROUNDUP
NATIONAL WEATHER SERVICE LUBBOCK TX
1200 AM CDT SAT AUG 27 2016

NOTE: "FAIR" INDICATES FEW OR NO CLOUDS BELOW 12,000 FEET WITH NO
SIGNIFICANT WEATHER AND/OR OBSTRUCTIONS TO VISIBILITY.

TXZ004-006>008-010-012-014-016-OKZ002-270600-
TEXAS PANHANDLE/OKLAHOMA PANHANDLE

CITY           SKY/WX    TMP DP  RH WIND       PRES   REMARKS
AMARILLO       LGT RAIN  62  59  90 S10       30.14F
BORGER         CLOUDY    67  59  75 S15G26    30.09R
CANADIAN       MOCLDY    73  65  76 W9        30.07R
DALHART        CLOUDY    62  57  83 S5        30.14R
DUMAS          CLOUDY    63  60  91 S8        30.12R
GUYMON         MOCLDY    67  62  84 SW8       30.04F
HEREFORD       CLOUDY    67  63  87 SE5G17    30.15S
PAMPA          TSTM      66  62  86 W9        30.14S
PERRYTON       CLOUDY    71  66  85 S17       30.04F
$$

TXZ026-029-035-045-048-270600-
SOUTHERN PANHANDLE/SOUTH PLAINS/ROLLING PLAINS

CITY           SKY/WX    TMP DP  RH WIND       PRES   REMARKS
CHILDRESS      PTCLDY    73  66  78 SE3       30.06R
SEMINOLE       CLOUDY    67  66  96 CALM      30.13S
LUBBOCK        PTCLDY    68  63  84 S5        30.13R
PLAINVIEW      PTCLDY    66  63  90 NW3       30.15R
SNYDER           N/A     73  67  84 E5        30.09S
$$

TXZ052-054-060>062-072-078-127-140-154-169-270600-
PERMIAN BASIN/CONCHO VALLEY/BIG COUNTRY/EDWARDS PLATEAU

CITY           SKY/WX    TMP DP  RH WIND       PRES   REMARKS
ABILENE        LGT RAIN  76  70  82 SE9       30.07S
BIG SPRING     CLOUDY    73  68  86 CALM      30.10S
BROWNWOOD      CLOUDY    73  68  83 SE7       30.06S
JUNCTION       CLEAR     79  65  62 CALM      30.05S
MIDLAND        CLOUDY    73  65  75 SE6       30.09S
ODESSA         CLOUDY    73  62  68 S7        30.10S
SAN ANGELO     CLOUDY    73  69  87 CALM      30.05R
SONORA         CLEAR     73  68  83 CALM      30.10F
SWEETWATER     CLOUDY    74  69  84 SE6       30.11S
WINK           CLOUDY    74  62  66 SE8       30.07S
$$

TXZ055-058-074-075-080-082-270600-
FAR WEST/SOUTHWEST MOUNTAINS/TRANS PECOS

CITY           SKY/WX    TMP DP  RH WIND       PRES   REMARKS
ALPINE         CLEAR     66  59  79 CALM      30.24R
DRYDEN           N/A     72  70  93 CALM      30.04F
EL PASO        MOCLDY    74  59  59 N15       30.11R
FORT STOCKTON  MOCLDY    70  62  76 S14       30.08S
GUADALUPE PASS CLOUDY    65  58  78 NE22      30.21S
MARFA          CLEAR    N/A N/A N/A VRB3      30.21R
PECOS          CLOUDY    71  64  78 E5        30.06F
PRESIDIO       FAIR      76  65  68 NE14G20   30.06S
$$

TXZ014-016-019-021>030-083-270600
TEXAS TECH WEST TEXAS MESONET/TEXAS PANHANDLE/NORTHERN SOUTH PLAINS

CITY           SKY/WX    TMP DP  RH WIND       PRES   REMARKS
ABERNATHY 5ENE   N/A     64  62  91 SE2       30.16F
AMARILLO 9NNE    N/A     63  61  92 SE8       30.13R
AMARILLO 7SSE    N/A     62  59  91 SE3       30.15F
AMHERST 1NE      N/A     67  58  73 N9        30.19R
BOOTLEG 11WNW    N/A     60  58  91 S9        30.19S
CANADIAN 6E      N/A     68  64  86 E5        30.07R
CAPROCK CYN SP   N/A     71  65  81 SW9       30.12R
CHILDRESS 2NNE   N/A     74  64  71 SE6       30.07R
CLARENDON 2WSW   N/A     69  64  83 SW8       30.14R
CLAUDE 12SW      N/A     61  59  93 E10       30.15F
DIMMITT 2NE      N/A     62  58  85 S7        30.18S
FLOYDADA 2NNE    N/A     65  63  92 S2        30.13F
FRIONA 2NE       N/A     62  58  87 SE6       30.18R
GOODLETT 3W      N/A     76  67  75 SE5       30.04S
HART 3N          N/A     66  59  78 SE1       30.19R
HEREFORD 2NW     N/A     65  60  82 S7        30.18R
MCLEAN 1E        N/A     69  63  81 S6        30.12R
MEMPHIS 1NE      N/A     69  66  90 NW3       30.09R
MULESHOE 2SSW    N/A     62  59  90 E9        30.17S
OLTON 6S         N/A     69  61  77 W6        30.18R
PALO DURO SP     N/A     62  60  94 S8        30.16F
PAMPA 2E         N/A     66  60  80 SW8       30.16S
PLAINVIEW 1S     N/A     69  65  86 W1        30.16R
SILVERTON 7ESE   N/A     65  62  90 W7        30.13S
TULIA 2ENE       N/A     66  60  82 W5        30.20S
TURKEY 2WSW      N/A     69  66  90 W7        30.10S
UMBARGER 3NNE    N/A     64  60  86 SE12      30.15F
$$

TXZ033>036-039>041-045>048-270600
TEXAS TECH WEST TEXAS MESONET/SOUTH PLAINS

CITY           SKY/WX    TMP DP  RH WIND       PRES   REMARKS
AIKEN 3WSW       N/A     66  65  97 CALM      30.17R
ANTON 6SSW       N/A     65  63  93 SE5       30.15R
BROWNFIELD 2S    N/A     66  64  92 SE2       30.14S
DENVR CTY 7WNW   N/A     65  63  93 SE6       30.15S
GAIL 2ESE        N/A     71  66  84 S3        30.09S
LAMESA 2SE       N/A     70  66  89 E5        30.12S
LEVELLAND 4S     N/A     65  62  90 SE5       30.15F
LUBBOCK 3WNW     N/A     68  60  76 S5        30.15R
MORTON 1ENE      N/A     69  64  85 SE3       30.16S
ODONNELL 1N      N/A     68  62  82 E5        30.12S
PLAINS 3N        N/A     65  63  90 SE7       30.15F
RALLS 1SE        N/A     66  62  85 S1        30.15R
REESE CENTER     N/A     67  62  85 SE6       30.15S
SEAGRAVES 1SW    N/A     67  65  91 SE2       30.14S
SEMINOLE 2NNE    N/A     67  64  90 E3        30.13S
SLATON 2NE       N/A     66  61  84 S8        30.14R
SNYDER 3E        N/A     72  67  85 SE8       30.09R
SUNDOWN 8SW      N/A     65  63  92 SE8       30.15S
TAHOKA 3NNE      N/A     65  63  91 SE5       30.13S
WOLFFORTH 6SSW   N/A     66  62  88 SE3       30.14S
$$

TXZ031-032-036>038-042>044-270600-
TEXAS TECH WEST TEXAS MESONET/ROLLING PLAINS

CITY           SKY/WX    TMP DP  RH WIND       PRES   REMARKS
ASPERMONT 3NE    N/A     73  69  86 SE7       30.05S
FLUVANNA 3WNW    N/A     69  63  81 SE5       30.10S
GRAHAM 5SSW      N/A     71  62  74 SE2       30.12R
GUTHRIE 10WSW    N/A     74  66  74 SE3       30.07R
HASKELL 1NW      N/A     78  64  62 SE6       30.05S
JAYTON 1SSE      N/A     73  68  84 S1        30.06R
KNOX CITY 3NW    N/A     78  66  68 SE7       30.04F
LK A HENRY 1NW   N/A     69  63  82 W2        30.08S
NORTHFIELD 1S    N/A     72  67  82 E7        30.08R
ODELL 4ENE       N/A     76  68  75 S8        30.05R
PADUCAH 10SW     N/A     72  69  88 CALM      30.08R
POST 1NE         N/A     68  62  81 W5        30.10R
RRING SPRGS 3N   N/A     69  66  89 W7        30.11R
SEYMOUR 3NW      N/A     78  66  66 SE8       30.04F
SPUR 1W          N/A     70  66  87 NW5       30.08S
WHITE RVR 6NE    N/A     71  61  69 SW3       30.11R
$$

TXZ052-054-060>062-072-078-127-140-154-169-270600-
TEXAS TECH WEST TEXAS MESONET/PERMIAN BASIN/
CONCHO VALLEY/BIG COUNTRY/EDWARDS PLATEAU

CITY           SKY/WX    TMP DP  RH WIND       PRES   REMARKS
COYANOSA 2N      N/A     72  64  75 E5        30.08S
JUNCTION 1SSW    N/A     78  66  66 SW2       30.07S
MERTZON 3NNE     N/A     73  71  94 S1        30.08S
SAN ANGELO 7NW   N/A     73  65  76 S2        30.07R
STRLNG CT 4WSW   N/A     71  70  97 NE1       30.08F
ST LAWRNCE 5SW   N/A     72  65  79 S3        30.10S
SWEETWATR 11SW   N/A     73  67  79 E9        30.11S
WALL 1E          N/A     73  66  78 S1        30.08S
$$

TXZ055-058-074-075-080-082-270600-
TEXAS TECH WEST TEXAS MESONET/FAR WEST/SOUTHWEST MOUNTAINS/TRANS PECOS

CITY           SKY/WX    TMP DP  RH WIND       PRES   REMARKS
GUADLPE MTN NP   N/A     65  56  72 N5        30.26S
$$




USA.gov is the U.S. government's official web portal to all federal, state and local government web resources and services.